Weather History for Staunton, VA

Change the Weather History Date:

Monday, February 18, 2013

  Actual Average Record
Temperature  
Mean Temperature 30 °F -  
Max Temperature 49 °F 47 °F 70 °F (2011)
Min Temperature 12 °F 27 °F 12 °F (2013)
Degree Days  
Heating Degree Days 34    
Moisture  
Dew Point 11 °F    
Average Humidity 46    
Maximum Humidity 78    
Minimum Humidity 23    
Precipitation  
Precipitation 0.00 in - - ()
Sea Level Pressure  
Sea Level Pressure 30.23 in    
Wind  
Wind Speed 2 mph (South)    
Max Wind Speed 14 mph    
Max Gust Speed 17 mph    
Visibility 10 miles    
Events      
Averages and records for this station are not official NWS values.
T = Trace of Precipitation, MM = Missing Value Source: NWS Daily Summary

Daily Weather History Graph

Daily Weather History Graph

Search for Another Location

Airport:

Trip Planner

Search our weather history database for the weather conditions in past years. The results will help you decide how hot, cold, wet, or windy it might be!

Date:

Astronomy

Feb. 18, 2013 Rise Set
Actual Time 7:01 AM EST 5:57 PM EST
Civil Twilight 6:35 AM EST 6:24 PM EST
Nautical Twilight 6:04 AM EST 6:55 PM EST
Astronomical Twilight 5:33 AM EST 7:25 PM EST
Moon 11:44 AM EST (2/18) 1:37 AM EST (2/18)
Length of Visible Light 11h 49m
Length of Day
10h 55m
First Quarter, 58% of the Moon is Illuminated
Feb 18
First Quarter
Feb 25
Full
Mar 4
Last Quarter
Mar 11
New
Mar 19
First Quarter

Hourly Weather History & Observations

Time (EST) Temp. Windchill Dew Point Humidity Pressure Visibility Wind Dir Wind Speed Gust Speed Precip Events Conditions
12:15 AM 18.1 °F - 5.4 °F 57% 30.21 in 10.0 mi Calm Calm - N/A   Clear
12:35 AM 17.6 °F - 5.5 °F 59% 30.21 in 10.0 mi Calm Calm - N/A   Clear
12:55 AM 18.5 °F - 5.4 °F 57% 30.21 in 10.0 mi Calm Calm - N/A   Clear
1:15 AM 14.2 °F - 5.9 °F 70% 30.22 in 10.0 mi Calm Calm - N/A   Clear
1:35 AM 17.1 °F - 5.7 °F 61% 30.22 in 10.0 mi Calm Calm - N/A   Clear
1:55 AM 20.1 °F - 5.5 °F 53% 30.23 in 10.0 mi Calm Calm - N/A   Clear
2:15 AM 16.7 °F - 6.3 °F 64% 30.24 in 10.0 mi Calm Calm - N/A   Clear
2:35 AM 20.5 °F - 5.5 °F 53% 30.24 in 10.0 mi Calm Calm - N/A   Clear
2:55 AM 20.7 °F - 5.2 °F 51% 30.24 in 10.0 mi Calm Calm - N/A   Clear
3:35 AM 16.9 °F - 5.9 °F 62% 30.25 in 10.0 mi Calm Calm - N/A   Clear
3:55 AM 17.1 °F - 6.8 °F 64% 30.25 in 10.0 mi Calm Calm - N/A   Clear
4:15 AM 18.5 °F - 6.3 °F 59% 30.26 in 10.0 mi Calm Calm - N/A   Clear
4:35 AM 17.6 °F - 6.1 °F 61% 30.26 in 10.0 mi Calm Calm - N/A   Clear
4:55 AM 17.4 °F - 6.1 °F 61% 30.27 in 10.0 mi Calm Calm - N/A   Clear
5:15 AM 16.3 °F - 5.9 °F 64% 30.27 in 10.0 mi Calm Calm - N/A   Clear
5:35 AM 16.2 °F - 6.4 °F 66% 30.28 in 10.0 mi Calm Calm - N/A   Clear
5:55 AM 13.8 °F - 6.6 °F 73% 30.28 in 10.0 mi Calm Calm - N/A   Clear
6:15 AM 15.3 °F - 6.6 °F 69% 30.29 in 10.0 mi Calm Calm - N/A   Clear
6:35 AM 12.7 °F - 6.3 °F 75% 30.30 in 10.0 mi Calm Calm - N/A   Clear
6:55 AM 12.9 °F - 6.6 °F 76% 30.30 in 10.0 mi Calm Calm - N/A   Clear
7:15 AM 12.7 °F - 6.1 °F 75% 30.31 in 10.0 mi Calm Calm - N/A   Clear
7:35 AM 13.5 °F - 7.7 °F 78% 30.31 in 10.0 mi Calm Calm - N/A   Clear
7:55 AM 17.1 °F - 10.4 °F 75% 30.32 in 10.0 mi Calm Calm - N/A   Clear
8:15 AM 19.9 °F - 9.5 °F 64% 30.33 in 10.0 mi Calm Calm - N/A   Clear
8:35 AM 21.7 °F - 11.1 °F 64% 30.34 in 10.0 mi Calm Calm - N/A   Clear
9:35 AM 29.8 °F 26.3 °F 8.8 °F 41% 30.33 in 10.0 mi SW 3.5 mph - N/A   Clear
9:55 AM 31.3 °F - 6.1 °F 35% 30.32 in 10.0 mi Calm Calm - N/A   Clear
10:15 AM 32.2 °F - 7.0 °F 35% 30.32 in 10.0 mi Calm Calm - N/A   Clear
10:35 AM 33.8 °F 29.6 °F 4.5 °F 29% 30.31 in 10.0 mi SSW 4.6 mph - N/A   Clear
10:55 AM 35.6 °F 32.8 °F 5.2 °F 28% 30.31 in 10.0 mi SSW 3.5 mph - N/A   Clear
11:15 AM 37.0 °F 33.3 °F 4.3 °F 25% 30.31 in 10.0 mi SSW 4.6 mph - N/A   Clear
11:35 AM 37.9 °F 34.4 °F 4.3 °F 25% 30.30 in 10.0 mi South 4.6 mph - N/A   Clear
11:55 AM 39.2 °F 34.2 °F 4.6 °F 24% 30.29 in 10.0 mi SSE 6.9 mph - N/A   Clear
12:15 PM 40.6 °F 34.3 °F 5.5 °F 23% 30.28 in 10.0 mi South 10.4 mph - N/A   Clear
12:35 PM 41.2 °F 37.3 °F 6.4 °F 24% 30.27 in 10.0 mi South 5.8 mph - N/A   Clear
12:55 PM 42.4 °F 38.1 °F 8.2 °F 25% 30.26 in 10.0 mi SSE 6.9 mph - N/A   Clear
1:15 PM 43.0 °F 37.7 °F 9.7 °F 26% 30.25 in 10.0 mi South 9.2 mph 16.1 mph N/A   Clear
1:35 PM 44.2 °F 39.2 °F 10.9 °F 26% 30.23 in 10.0 mi South 9.2 mph 16.1 mph N/A   Clear
1:55 PM 45.5 °F 40.8 °F 12.2 °F 26% 30.22 in 10.0 mi South 9.2 mph - N/A   Clear
2:15 PM 46.9 °F - 13.8 °F 26% 30.21 in 10.0 mi South 9.2 mph - N/A   Clear
2:35 PM 47.5 °F - 14.7 °F 27% 30.20 in 10.0 mi SW 12.7 mph - N/A   Clear
2:55 PM 48.6 °F - 15.4 °F 27% 30.20 in 10.0 mi SSW 13.8 mph 17.3 mph N/A   Clear
3:15 PM 49.3 °F - 16.3 °F 27% 30.19 in 10.0 mi SSW 11.5 mph 17.3 mph N/A   Clear
3:35 PM 48.9 °F - 15.4 °F 26% 30.18 in 10.0 mi South 10.4 mph - N/A   Clear
3:55 PM 48.2 °F - 15.4 °F 27% 30.18 in 10.0 mi South 6.9 mph - N/A   Clear
4:15 PM 48.2 °F - 15.8 °F 27% 30.18 in 10.0 mi South 10.4 mph - N/A   Clear
4:35 PM 47.5 °F - 15.8 °F 28% 30.18 in 10.0 mi South 11.5 mph - N/A   Clear
4:55 PM 47.5 °F - 16.0 °F 28% 30.18 in 10.0 mi South 8.1 mph - N/A   Clear
5:15 PM 46.4 °F 41.9 °F 15.8 °F 29% 30.19 in 10.0 mi South 9.2 mph - N/A   Clear
5:35 PM 45.0 °F 40.6 °F 16.0 °F 31% 30.18 in 10.0 mi South 8.1 mph - N/A   Clear
5:55 PM 44.1 °F 40.1 °F 16.0 °F 32% 30.18 in 10.0 mi South 6.9 mph - N/A   Clear
6:15 PM 43.7 °F 39.1 °F 16.2 °F 33% 30.19 in 10.0 mi South 8.1 mph - N/A   Clear
6:35 PM 42.8 °F 41.1 °F 16.3 °F 34% 30.19 in 10.0 mi South 3.5 mph - N/A   Clear
6:55 PM 42.3 °F 39.4 °F 16.5 °F 35% 30.19 in 10.0 mi South 4.6 mph - N/A   Clear
7:15 PM 41.9 °F 38.2 °F 16.9 °F 36% 30.19 in 10.0 mi South 5.8 mph - N/A   Clear
7:35 PM 41.2 °F 37.3 °F 17.8 °F 39% 30.19 in 10.0 mi South 5.8 mph - N/A   Clear
7:55 PM 40.8 °F 38.8 °F 18.1 °F 40% 30.18 in 10.0 mi South 3.5 mph - N/A   Clear
8:15 PM 40.5 °F 35.8 °F 18.5 °F 41% 30.17 in 10.0 mi South 6.9 mph - N/A   Clear
8:35 PM 40.5 °F 36.5 °F 18.5 °F 41% 30.16 in 10.0 mi SSW 5.8 mph - N/A   Clear
8:55 PM 37.6 °F 34.0 °F 19.4 °F 48% 30.16 in 10.0 mi SW 4.6 mph - N/A   Clear
9:15 PM 37.6 °F 35.1 °F 19.4 °F 48% 30.16 in 10.0 mi SSW 3.5 mph - N/A   Clear
9:35 PM 35.6 °F - 19.6 °F 52% 30.16 in 10.0 mi Calm Calm - N/A   Clear
9:55 PM 34.7 °F - 19.9 °F 55% 30.16 in 10.0 mi Calm Calm - N/A   Clear
10:15 PM 32.7 °F - 20.3 °F 60% 30.15 in 10.0 mi Calm Calm - N/A   Clear
10:35 PM 33.1 °F - 20.3 °F 59% 30.15 in 10.0 mi Calm Calm - N/A   Clear
10:55 PM 33.1 °F 28.7 °F 21.0 °F 61% 30.14 in 10.0 mi SW 4.6 mph - N/A   Clear
11:15 PM 34.7 °F 31.8 °F 20.5 °F 56% 30.14 in 10.0 mi SW 3.5 mph - N/A   Clear
11:35 PM 34.7 °F 29.6 °F 21.0 °F 57% 30.13 in 10.0 mi South 5.8 mph - N/A   Clear
11:55 PM 37.6 °F 34.0 °F 21.0 °F 51% 30.11 in 10.0 mi South 4.6 mph - N/A   Clear